Home > Weather > Muttenz > Past weeks

Flag for Switzerland Past Weather in Muttenz, Basel-Land, Switzerland — Yesterday and Last 2 Weeks

Now
52 °F

Clear.


Feels Like: 52 °F
Forecast: 56 / 77 °F
Wind: 2 mph from North

Location: Bale-Mulhouse

Current Time: May 26, 2016 at 2:44:58 AM

Latest Report: May 26, 2016 at 2:00 AM


Visibility: 10 mi

Pressure: 29.98 "Hg

Humidity: 94%

Dew Point: 50 °F

Location of MuttenzLocation

Past Weather in Muttenz — Graph

°F

Muttenz Temperature Yesterday

Maximum temperature yesterday: 68 °F (at 2:30 PM)
Minimum temperature yesterday: 50 °F (at 3:00 AM)
Average temperature yesterday: 58 °F

High & Low Weather Summary for the Past Weeks

 TemperatureHumidityPressure
High77 °F (May 21, 3:30 PM)100% (May 11, 3:30 AM)30.21 "Hg (May 11, 3:30 AM)
Low41 °F (May 16, 1:30 AM)38% (May 18, 3:30 PM)29.50 "Hg (May 12, 1:30 PM)
Average56 °F78%29.92 "Hg
* Reported May 11 1:00 AM — May 26 1:30 AM, Muttenz, Weather by CustomWeather, © 2016

Note: Actual official high and low records may vary slightly from our data, if they occured in-between our weather recording intervals... More about our weather records

Advertising

Muttenz Weather History for the Previous 24 Hours

Scroll right to see more
 ConditionsComfort  
Time TempWeatherWind HumidityBarometerVisibility
1:30 AM
Thu, May 26
52 °FClear.2 mph94%29.98 "Hg10 mi
1:00 AM52 °FClear.5 mph94%29.98 "Hg10 mi
12:30 AM54 °FClear.No wind94%29.98 "Hg10 mi
12:00 AM54 °FClear.No wind94%29.98 "Hg10 mi
11:30 PM
Wed, May 25
55 °FClear.No wind94%29.98 "Hg10 mi
11:00 PM55 °FClear.2 mph88%29.98 "Hg10 mi
10:30 PM57 °FClear.1 mph88%29.98 "Hg10 mi
10:00 PM59 °FSunny.2 mph82%29.95 "Hg10 mi
9:30 PM63 °FSunny.No wind73%29.95 "Hg10 mi
9:00 PM64 °FSunny.2 mph60%29.95 "Hg10 mi
8:30 PM66 °FPartly sunny.1 mph60%29.95 "HgN/A
8:00 PM68 °FPartly sunny.No wind60%29.95 "HgN/A
7:30 PM66 °FPartly sunny.3 mph64%29.95 "HgN/A
7:00 PM68 °FPartly sunny.1 mph60%29.95 "HgN/A
6:30 PM66 °FPartly sunny.1 mph56%29.92 "HgN/A
6:00 PM66 °FPartly sunny.3 mph56%29.92 "HgN/A
5:30 PM68 °FPartly sunny.2 mph56%29.95 "HgN/A
5:00 PM66 °FBroken clouds.5 mph56%29.95 "HgN/A
4:30 PM66 °FPartly sunny.7 mph60%29.95 "HgN/A
4:00 PM66 °FBroken clouds.7 mph60%29.92 "HgN/A
3:30 PM68 °FBroken clouds.6 mph56%29.92 "HgN/A
3:00 PM68 °FPartly sunny.3 mph56%29.92 "HgN/A
2:30 PM68 °FScattered clouds.3 mph56%29.92 "HgN/A
2:00 PM66 °FPassing clouds.3 mph56%29.92 "HgN/A
1:30 PM64 °FPassing clouds.3 mph60%29.95 "HgN/A
1:00 PM64 °FPassing clouds.3 mph60%29.95 "HgN/A
12:30 PM63 °FPassing clouds.3 mph59%29.95 "HgN/A
12:00 PM61 °FPassing clouds.6 mph63%29.95 "HgN/A
11:30 AM59 °FPassing clouds.7 mph68%29.98 "HgN/A
11:00 AM59 °FPartly sunny.7 mph68%29.98 "HgN/A
10:30 AM57 °FPartly sunny.6 mph67%29.98 "HgN/A
10:00 AM55 °FPartly sunny.5 mph72%29.98 "HgN/A
9:30 AM55 °FPartly sunny.5 mph72%29.98 "HgN/A
9:00 AM54 °FPartly sunny.2 mph82%29.98 "HgN/A
8:30 AM54 °FPartly sunny.2 mph88%29.98 "HgN/A
8:00 AM52 °FPartly sunny.3 mph94%29.95 "HgN/A
7:30 AM52 °FPartly sunny.3 mph94%29.95 "HgN/A
7:00 AM52 °FFog.2 mph88%29.95 "HgN/A
6:30 AM50 °FFog.3 mph94%29.95 "Hg4 mi
6:00 AM50 °FFog.3 mph94%29.95 "Hg3 mi
5:30 AM50 °FFog.3 mph94%29.95 "Hg3 mi
5:00 AM50 °FFog.5 mph100%29.95 "Hg2 mi
4:30 AM50 °FFog.3 mph100%29.95 "Hg2 mi
4:00 AM50 °FMostly cloudy.3 mph100%29.95 "Hg4 mi
3:30 AM50 °FOvercast.3 mph100%29.95 "Hg4 mi
3:00 AM50 °FMostly cloudy.3 mph100%29.95 "Hg4 mi
2:30 AM52 °FOvercast.3 mph94%29.95 "Hg4 mi
2:00 AM52 °FOvercast.3 mph94%29.98 "Hg5 mi
Weather by CustomWeather, © 2016

See weather overviewHow to use our weather pages